Regional Weather Roundup
Issued by NWS

Home | Current Version | Previous Version | Text Only | Print | Product List | Glossary Off
Versions: 1 2 3 4 5 6 7 8 9 10 11 12 13 14 15 16 17 18 19 20 21 22 23 24 25 26 27 28 29 30 31 32 33 34 35 36 37 38 39 40 41 42 43 44 45 46 47 48 49 50

687
ASUS43 KMKX 261711
RWRWI

WISCONSIN REGIONAL WEATHER ROUNDUP
NATIONAL WEATHER SERVICE MILWAUKEE/SULLIVAN WI
1200 PM CDT SAT MAY 26 2018

NOTE: "FAIR" INDICATES FEW OR NO CLOUDS BELOW 12,000 FEET WITH NO
SIGNIFICANT WEATHER AND/OR OBSTRUCTIONS TO VISIBILITY.

WIZ001-002-006>008-014>016-023>028-261800-
NORTHWEST WISCONSIN

CITY           SKY/WX    TMP DP  RH WIND       PRES   REMARKS
SUPERIOR ARPT  FAIR      81  63  55 CALM      29.65F HX  82
ASHLAND        FAIR      85  63  47 SW7       29.66F HX  86
HAYWARD        FAIR      83  64  52 VRB7      29.71S HX  84
SIREN          FAIR      85  59  40 W7        29.71S HX  85
CUMBERLAND     FAIR      81  61  50 SW3       29.72F HX  81
RICE LAKE      FAIR      83  61  47 SW3       29.73F HX  83
CHETEK         FAIR      83  66  56 SW3       29.72S HX  85
LADYSMITH      FAIR      82  65  55 SW8       29.74S HX  84
EAU CLAIRE     FAIR      83  64  52 SW8       29.72S HX  84
MENOMONIE      FAIR      83  65  54 S5        29.72F HX  85
NEW RICHMOND   FAIR      85  63  48 CALM      29.72S HX  85
OSCEOLA        FAIR      84  65  51 SW6       29.74F HX  86
$$

WIZ003>005-009-010-017-018-261800-
NORTH CENTRAL WISCONSIN

CITY           SKY/WX    TMP DP  RH WIND       PRES   REMARKS
MANITOWISH WTR FAIR      84  61  46 SW10      29.72S HX  84
ARBOR VITAE    FAIR      85  57  38 SW10G16   29.72F HX  84
WOODRUFF       FAIR      85  57  38 SW10G16   29.72F HX  84
RHINELANDER    FAIR      86  59  39 S10       29.74F HX  85
EAGLE RIVER    FAIR      84  54  35 SW8       29.72F HX  82
LAND O LAKES   FAIR      86  54  32 S8G16     29.73F HX  84
PHILLIPS       FAIR      83  63  51 SW9       29.72F HX  84
TOMAHAWK       FAIR      85  59  40 SW3       29.74F HX  85
MEDFORD        FAIR      81  61  49 S6        29.75F HX  82
MERRILL        FAIR      85  60  43 SW7       29.75F HX  85
$$

WIZ029-030-035-036-043>047-261800-
CENTRAL WISCONSIN

CITY           SKY/WX    TMP DP  RH WIND       PRES   REMARKS
WAUSAU         NOT AVBL
MOSINEE        MOSUNNY   81  63  54 S8        29.77F HX  82
MARSHFIELD     FAIR      83  63  50 VRB5      29.75F HX  84
STEVENS POINT  FAIR      81  61  50 SW5       29.76F HX  82
WAUPACA        FAIR      87  58  37 E3        29.76S HX  86
WAUTOMA        FAIR      83  62  49 CALM      29.76F HX  84
WISC RAPIDS    FAIR      85  60  42 S7        29.77F HX  85
CAMP DOUGLAS   FAIR      84  65  52 CALM      29.76F HX  85
$$

WIZ011>013-019>022-031-037>040-048>050-261800-
NORTHEAST WISCONSIN

CITY           SKY/WX    TMP DP  RH WIND       PRES   REMARKS
ANTIGO         FAIR      83  60  46 SW6       29.76F HX  83
SHAWANO        FAIR      86  62  43 S6        29.73F HX  86
OCONTO         FAIR      84  63  49 NW5       29.72F HX  84
STURGEON BAY   FAIR      83  63  50 SW7       29.74S HX  84
GREEN BAY      FAIR      85  61  44 SW8       29.74F HX  85
MANITOWOC      FAIR      83  61  47 VRB3      29.75  HX  83
APPLETON       SUNNY     81  57  44 W5        29.75F HX  81
CLINTONVILLE   FAIR      84  60  43 S5        29.74F HX  84
OSHKOSH        FAIR      82  63  52 CALM      29.76F HX  83
$$

WIZ032>034-041-042-053>061-261800-
SOUTHWEST WISCONSIN

CITY           SKY/WX    TMP DP  RH WIND       PRES   REMARKS
LA CROSSE      FAIR      82  68  62 VRB3      29.75S HX  85
SPARTA         FAIR      81  64  56 W3        29.76F HX  82
VIROQUA        FAIR      82  66  56 SW6       29.79S HX  84
BOSCOBEL       FAIR      83  69  62 CALM      29.77F HX  86
PRAIRIE DU CHI FAIR      81  65  59 CALM      29.77S HX  83
PLATTEVILLE    FAIR      79  71  75 SW7       29.81S HX  82
$$

WIZ056-057-062-063-064-067-068-261800-
SOUTH CENTRAL WISCONSIN

CITY           SKY/WX    TMP DP  RH WIND       PRES   REMARKS
REEDSBURG      FAIR      81  65  57 E3        29.77S HX  83
BARABOO/DELLS  FAIR      83  60  45 SW5       29.78S HX  83
LONE ROCK      FAIR      83  67  58 W7        29.77F HX  85
MINERAL POINT  FAIR      81  68  65 W3        29.80F HX  83
MADISON        FAIR      83  65  54 VRB3      29.77F HX  85
MIDDLETON      FAIR      83  64  52 CALM      29.79S HX  84
WATERTOWN      FAIR      82  65  56 N3        29.78S HX  83
MONROE         FAIR      81  63  54 NW5       29.80S HX  82
JANESVILLE     SUNNY     82  61  47 CALM      29.79S HX  83
$$

WIZ051-052-058>065-066-070>072-261800-
SOUTHEAST WISCONSIN

CITY           SKY/WX    TMP DP  RH WIND       PRES   REMARKS
MILWAUKEE      FAIR      85  63  47 NW8       29.76S HX  86
WAUKESHA       SUNNY     79  63  57 NW9       29.79F HX  80
MILWAUKEE/TIMM SUNNY     82  55  39 NW6       29.78S HX  82
RACINE         FAIR      84  63  49 N7        29.79R HX  85
BURLINGTON     FAIR      84  61  46 N6        29.78S HX  84
KENOSHA        FAIR      85  62  46 NW8       29.78S HX  85
FOND DU LAC    FAIR      83  62  49 W3        29.77S HX  84
SHEBOYGAN      FAIR      83  62  49 VRB5      29.75F HX  84
WEST BEND      FAIR      81  61  50 N5        29.78S HX  81
JUNEAU         FAIR      80  63  54 CALM      29.79F HX  81
$$

LSZ147-162-261800-
LAKE SUPERIOR

STATION/POSITION TIME  TEMP    WIND        PRES    WAVE
                       AIR SEA DIR/SP/G            HT/PER
                 (UTC) (F)     (DEG/KT/KT) (MB)    (FT/S)
W MID LAKE BUOY  1650   40 37   20/  8/  8 1005.5R   1
DEVILS ISLAND    1700   45      90/  8/  9 1005.7F
SAXON HARBOR     1630           60/  7/  8 1004.7R
$$

LMZ867-665-643>646-261800-
LAKE MICHIGAN

STATION/POSITION TIME  TEMP    WIND        PRES    WAVE
                       AIR SEA DIR/SP/G            HT/PER
                 (UTC) (F)     (DEG/KT/KT) (MB)    (FT/S)
N MID LAKE BUOY  1650   43 38  180/  8/ 10 1006.9F   1
NORTHPORT PIER   1640   50     100/  6/  7 1007.5R
KEWAUNEE LAKESHO 1642          160/  7/  8 1006.7S
SHEBOYGAN LAKESH 1700   67     170/ 15/ 15 1007.0F
PORT WASHINGTON  1640   70     110/  2/  5 1008.8R
ATWATER BUOY     1607   67 50   50/  4/  6 1008.4    1
MILWAUKEE LAKESH 1650           80/  5/  6   N/A
S MID LAKE BUOY  1650   47 39  150/  8/  8 1009.3R   0
KENOSHA   LAKESH 1700   66                 1008.1
$$

TC  - TEMPERATURE IN CELSIUS
VSB - VISIBILITY IN STATUTE MILES
WCI - WIND CHILL INDEX
HX  - HEAT INDEX





USA.gov is the U.S. government's official web portal to all federal, state and local government web resources and services.